User: anonymous   Login
Location: Hertford
(51.8000°N, 0.0667°W)
Time: 15:12:40
(UTC+00:00)
Language:

Cosmos 1975 Rocket - Orbit

View from above orbital plane
View from above orbital plane
View from above satellite
View from above satellite

Ground track
Ground track

The orbit data is extracted from the following two-line orbital elements,

1 19574U 88093B   20340.42012514  .00000115  00000-0  11152-4 0  9993
2 19574  82.5337  40.1793 0020089 257.3509 113.1434 14.83347761737301
Epoch (UTC): 05 December 2020 10:04:58
Eccentricity: 0.0020089
inclination: 82.5337°
perigee height: 605 km
apogee height: 633 km
right ascension of ascending node: 40.1793°
argument of perigee: 257.3509°
revolutions per day: 14.83347761
mean anomaly at epoch: 113.1434°
orbit number at epoch: 73730

The dashed part of the orbit path shows where the satellite is in the earth's shadow,  

DLR